Location: Munkebjergskolens Observatorium
(55.3864°N, 10.3987°E)
Time: 05:00:47
(UTC+02:00)

CAS-6 - Pass Details

Date: 05 April 2023
Orbit: 610 x 632 km, 97.9° (Epoch: 31 May)

Event Time Altitude Azimuth Distance (km) Brightness Sun altitude
Exits shadow 23:11:46 74° 121° (ESE) 656 ? -22.8°
Maximum altitude 23:12:04 79° 72° (ENE) 644 ? -22.8°
Drops below altitude 10° 23:16:28 10° 347° (NNW) 2,020 ? -23.2°
Sets 23:18:40 0° 346° (NNW) 2,936 ? -23.4°
